When you browse on this site, cookies collect data to enhance your experience and personalize the content and advertising you see.
Visit our Privacy Policy to learn more. By continuing to use the site, you agree to this use of cookies and data.
  • Em Portugal
  • Lista de países
  • Para 7 dias
  • Temperatura da água
  • Mapas de satélite
  • Mapa do tempo
  • Widgets de tempo
  • user-avatar
    Iniciar Sessão

    Previsão horária em Vasilkovka

    Hoje, 25 Maio, Sábado

    Tempo Temperatura Precipitação Vento Pressão Humidade
    00:00 +17°C° 0.1 mm 2 m/s 746 mmHg 85%
    01:00 +17°C° 0.1 mm 2 m/s 746 mmHg 87%
    02:00 +16°C° 0 mm 2 m/s 745 mmHg 87%
    03:00 +16°C° 0.3 mm 2 m/s 746 mmHg 87%
    04:00 +16°C° 0.3 mm 2 m/s 746 mmHg 86%
    05:00 +16°C° 0.3 mm 2 m/s 746 mmHg 86%
    06:00 +18°C° 0 mm 2 m/s 746 mmHg 79%
    07:00 +19°C° 0 mm 2 m/s 746 mmHg 72%
    08:00 +21°C° 0 mm 2 m/s 745 mmHg 66%
    09:00 +23°C° 0 mm 2 m/s 745 mmHg 61%
    10:00 +24°C° 0 mm 2 m/s 745 mmHg 57%
    11:00 +25°C° 0 mm 3 m/s 745 mmHg 52%
    12:00 +25°C° 1.2 mm 2 m/s 744 mmHg 55%
    13:00 +25°C° 1.2 mm 2 m/s 744 mmHg 57%
    14:00 +25°C° 1.2 mm 2 m/s 744 mmHg 60%
    15:00 +25°C° 0.5 mm 2 m/s 744 mmHg 61%
    16:00 +24°C° 0.5 mm 1 m/s 743 mmHg 62%
    17:00 +22°C° 0.5 mm 0 m/s 743 mmHg 63%
    18:00 +21°C° 0.2 mm 0 m/s 743 mmHg 68%
    19:00 +19°C° 0.2 mm 0 m/s 743 mmHg 73%
    20:00 +18°C° 0.2 mm 0 m/s 743 mmHg 78%
    21:00 +20°C° 0 mm 1 m/s 743 mmHg 80%
    22:00 +19°C° 0 mm 1 m/s 743 mmHg 81%
    23:00 +19°C° 0 mm 1 m/s 743 mmHg 83%

    Amanhã, 26 Maio, Domingo

    Tempo Temperatura Precipitação Vento Pressão Humidade
    00:00 +17°C° 0.3 mm 2 m/s 743 mmHg 85%
    01:00 +17°C° 0.3 mm 2 m/s 743 mmHg 86%
    02:00 +17°C° 0.3 mm 2 m/s 743 mmHg 88%
    03:00 +17°C° 0.6 mm 2 m/s 743 mmHg 89%
    04:00 +17°C° 0.6 mm 2 m/s 743 mmHg 89%
    05:00 +17°C° 0.6 mm 2 m/s 743 mmHg 90%
    06:00 +18°C° 0.2 mm 3 m/s 744 mmHg 86%
    07:00 +19°C° 0.2 mm 3 m/s 744 mmHg 82%
    08:00 +21°C° 0.2 mm 4 m/s 744 mmHg 78%
    09:00 +22°C° 0.7 mm 4 m/s 744 mmHg 73%
    10:00 +23°C° 0.7 mm 4 m/s 744 mmHg 68%
    11:00 +25°C° 0.7 mm 5 m/s 745 mmHg 62%
    12:00 +25°C° 1 mm 5 m/s 745 mmHg 63%
    13:00 +24°C° 1 mm 6 m/s 745 mmHg 63%
    14:00 +24°C° 1 mm 6 m/s 745 mmHg 64%
    15:00 +24°C° 0.4 mm 6 m/s 745 mmHg 67%
    16:00 +23°C° 0.4 mm 5 m/s 746 mmHg 71%
    17:00 +22°C° 0.4 mm 5 m/s 746 mmHg 75%
    18:00 +21°C° 0.1 mm 4 m/s 746 mmHg 79%
    19:00 +20°C° 0.1 mm 4 m/s 747 mmHg 82%
    20:00 +18°C° 0.1 mm 3 m/s 747 mmHg 86%
    21:00 +18°C° 0 mm 3 m/s 748 mmHg 87%
    22:00 +17°C° 0 mm 3 m/s 748 mmHg 89%
    23:00 +16°C° 0 mm 3 m/s 749 mmHg 90%

    Depois de amanhã, 27 Maio, Segunda-feira

    Tempo Temperatura Precipitação Vento Pressão Humidade
    00:00 +16°C° 0 mm 3 m/s 749 mmHg 91%
    01:00 +16°C° 0 mm 3 m/s 750 mmHg 92%
    02:00 +14°C° 0 mm 3 m/s 750 mmHg 93%
    03:00 +15°C° 0 mm 2 m/s 750 mmHg 92%
    04:00 +16°C° 0 mm 2 m/s 751 mmHg 92%
    05:00 +16°C° 0 mm 2 m/s 751 mmHg 91%
    06:00 +18°C° 0 mm 2 m/s 752 mmHg 84%
    07:00 +19°C° 0 mm 2 m/s 752 mmHg 77%
    08:00 +21°C° 0 mm 2 m/s 752 mmHg 70%
    09:00 +23°C° 0 mm 2 m/s 752 mmHg 65%
    10:00 +24°C° 0 mm 3 m/s 753 mmHg 59%
    11:00 +25°C° 0 mm 3 m/s 753 mmHg 53%
    12:00 +26°C° 0 mm 3 m/s 753 mmHg 52%
    13:00 +26°C° 0 mm 3 m/s 753 mmHg 51%
    14:00 +27°C° 0 mm 3 m/s 753 mmHg 50%
    15:00 +27°C° 0 mm 3 m/s 753 mmHg 52%
    16:00 +27°C° 0 mm 3 m/s 753 mmHg 54%
    17:00 +26°C° 0 mm 3 m/s 753 mmHg 57%
    18:00 +25°C° 0 mm 2 m/s 753 mmHg 61%
    19:00 +23°C° 0 mm 1 m/s 753 mmHg 65%
    20:00 +21°C° 0 mm 1 m/s 753 mmHg 69%
    21:00 +21°C° 0 mm 1 m/s 753 mmHg 70%
    22:00 +20°C° 0 mm 1 m/s 754 mmHg 71%
    23:00 +19°C° 0 mm 2 m/s 754 mmHg 72%

    28 Maio, Terça-feira

    Tempo Temperatura Precipitação Vento Pressão Humidade
    00:00 +18°C° 0 mm 2 m/s 754 mmHg 72%
    01:00 +18°C° 0 mm 2 m/s 754 mmHg 72%
    02:00 +18°C° 0 mm 2 m/s 754 mmHg 73%
    03:00 +18°C° 0 mm 2 m/s 754 mmHg 75%
    04:00 +18°C° 0 mm 2 m/s 754 mmHg 77%
    05:00 +18°C° 0 mm 2 m/s 754 mmHg 79%
    06:00 +20°C° 0 mm 2 m/s 754 mmHg 74%
    07:00 +23°C° 0 mm 2 m/s 755 mmHg 69%
    08:00 +25°C° 0 mm 2 m/s 755 mmHg 64%
    09:00 +26°C° 0 mm 2 m/s 755 mmHg 60%
    10:00 +27°C° 0 mm 3 m/s 755 mmHg 55%
    11:00 +28°C° 0 mm 3 m/s 755 mmHg 50%
    12:00 +29°C° 0 mm 3 m/s 754 mmHg 49%
    13:00 +29°C° 0 mm 3 m/s 754 mmHg 48%
    14:00 +29°C° 0 mm 3 m/s 754 mmHg 48%
    15:00 +29°C° 0 mm 3 m/s 754 mmHg 51%
    16:00 +29°C° 0 mm 3 m/s 753 mmHg 54%
    17:00 +28°C° 0 mm 3 m/s 753 mmHg 58%
    18:00 +27°C° 0 mm 3 m/s 753 mmHg 64%
    19:00 +25°C° 0 mm 3 m/s 753 mmHg 70%
    20:00 +22°C° 0 mm 3 m/s 753 mmHg 75%
    21:00 +21°C° 0 mm 3 m/s 753 mmHg 76%
    22:00 +20°C° 0 mm 3 m/s 754 mmHg 77%
    23:00 +19°C° 0 mm 3 m/s 754 mmHg 78%

    29 Maio, Quarta-feira

    Tempo Temperatura Precipitação Vento Pressão Humidade
    00:00 +18°C° 0 mm 3 m/s 754 mmHg 78%
    01:00 +18°C° 0 mm 2 m/s 754 mmHg 78%
    02:00 +18°C° 0 mm 2 m/s 754 mmHg 78%
    03:00 +18°C° 0 mm 3 m/s 754 mmHg 79%
    04:00 +18°C° 0 mm 3 m/s 754 mmHg 80%
    05:00 +18°C° 0 mm 3 m/s 753 mmHg 82%
    06:00 +20°C° 0 mm 4 m/s 753 mmHg 76%
    07:00 +23°C° 0 mm 5 m/s 753 mmHg 70%
    08:00 +26°C° 0 mm 6 m/s 753 mmHg 65%
    09:00 +27°C° 0 mm 6 m/s 753 mmHg 62%
    10:00 +28°C° 0 mm 6 m/s 753 mmHg 59%
    11:00 +28°C° 0 mm 7 m/s 753 mmHg 56%
    12:00 +29°C° 0 mm 7 m/s 753 mmHg 55%
    13:00 +29°C° 0 mm 7 m/s 753 mmHg 55%
    14:00 +29°C° 0 mm 7 m/s 752 mmHg 54%
    15:00 +29°C° 0 mm 6 m/s 752 mmHg 56%
    16:00 +29°C° 0 mm 5 m/s 752 mmHg 59%
    17:00 +28°C° 0 mm 4 m/s 752 mmHg 62%
    18:00 +26°C° 0 mm 4 m/s 752 mmHg 66%
    19:00 +23°C° 0 mm 4 m/s 752 mmHg 71%
    20:00 +22°C° 0 mm 3 m/s 752 mmHg 76%
    21:00 +21°C° 0 mm 3 m/s 752 mmHg 77%
    22:00 +20°C° 0 mm 3 m/s 752 mmHg 79%
    23:00 +20°C° 0 mm 3 m/s 752 mmHg 80%

    30 Maio, Quinta-feira

    Tempo Temperatura Precipitação Vento Pressão Humidade
    00:00 +19°C° 0 mm 3 m/s 752 mmHg 80%
    01:00 +19°C° 0 mm 3 m/s 752 mmHg 80%
    02:00 +18°C° 0 mm 3 m/s 752 mmHg 80%
    03:00 +18°C° 0 mm 3 m/s 752 mmHg 80%
    04:00 +18°C° 0 mm 3 m/s 753 mmHg 80%
    05:00 +18°C° 0 mm 3 m/s 753 mmHg 80%
    06:00 +20°C° 0 mm 4 m/s 753 mmHg 74%
    07:00 +23°C° 0 mm 4 m/s 753 mmHg 68%
    08:00 +26°C° 0 mm 5 m/s 753 mmHg 61%
    09:00 +27°C° 0 mm 5 m/s 753 mmHg 57%
    10:00 +28°C° 0 mm 5 m/s 753 mmHg 52%
    11:00 +30°C° 0 mm 5 m/s 753 mmHg 47%
    12:00 +30°C° 0 mm 5 m/s 753 mmHg 46%
    13:00 +30°C° 0 mm 5 m/s 753 mmHg 45%
    14:00 +32°C° 0 mm 4 m/s 752 mmHg 45%
    15:00 +32°C° 0 mm 4 m/s 752 mmHg 48%
    16:00 +30°C° 0 mm 3 m/s 752 mmHg 51%
    17:00 +30°C° 0 mm 2 m/s 752 mmHg 54%
    18:00 +28°C° 0 mm 2 m/s 752 mmHg 58%
    19:00 +26°C° 0 mm 2 m/s 753 mmHg 61%
    20:00 +24°C° 0 mm 1 m/s 753 mmHg 64%
    21:00 +23°C° 0 mm 2 m/s 753 mmHg 66%
    22:00 +23°C° 0 mm 2 m/s 753 mmHg 68%
    23:00 +21°C° 0 mm 2 m/s 753 mmHg 70%
    Mostrar mais